Regional Weather Roundup
Issued by NWS

Home | Current Version | Previous Version | Text Only | Print | Product List | Glossary Off
Versions: 1 2 3 4 5 6 7 8 9 10 11 12 13 14 15 16 17 18 19 20 21 22 23 24 25 26 27 28 29 30 31 32 33 34 35 36 37 38 39 40 41 42 43 44 45 46 47 48 49 50

000
ASUS45 KABQ 282110
RWRNM
NEW MEXICO REGIONAL WEATHER ROUNDUP
NATIONAL WEATHER SERVICE ALBUQUERQUE NM
300 PM MDT THU APR 28 2016

NOTE: "FAIR" MEANS FEW OR NO CLOUDS BELOW 12,000 FEET AGL WITH NO
       SIGNIFICANT WEATHER OR OBSTRUCTIONS TO VISION.

      THIS PRODUCT IS RELEASED AS TWO VERSIONS.  ONE VERSION NEAR
      THE TOP OF THE HOUR CONTAINING PRELIMINARY DATA FROM ALBUQUERQUE
      AND OTHER STATIONS.  A FINAL VERSION WITH ADDITIONAL DATA IS
      ISSUED ABOUT 10 MINUTES AFTER THE HOUR.

NMZ501-503-504-510>518-282200-
NORTHWEST PLATEAU/NORTHCENTRAL MOUNTAINS

CITY           SKY/WX    TMP DP  RH WIND       PRES   REMARKS
FARMINGTON     PTSUNNY   66   8  10 SW25G32   29.65F
LOS ALAMOS     FAIR      62   6  11 S16G32    29.80F
SANTA FE       FAIR      73   2   6 SW21G30   29.75S
TAOS           FAIR      61  23  23 S23G29    29.79F
ANGEL FIRE     PTSUNNY   50  28  42 S23G30    29.90S

$$
NMZ402-403-502-505>509-282200-
WESTCENTRAL MOUNTAINS/SOUTHWEST MOUNTAINS

CITY           SKY/WX    TMP DP  RH WIND       PRES   REMARKS
GALLUP         FAIR      62   4  10 SW31G49   29.73R
GRANTS         FAIR      64   3   8 S24G36    29.75S

$$
NMZ407-409-411-412-282200-
SOUTHERN DESERTS

CITY           SKY/WX    TMP DP  RH WIND       PRES   REMARKS
LORDSBURG      FAIR      77   5   6 SE9G22    29.72F
DEMING         FAIR      77  20  12 W16G32    29.75F
LAS CRUCES     FAIR      77  18  11 SW17G25   29.77F
HOLLOMAN AFB   FAIR      79  16   9 SW20G33   29.74S
ALAMOGORDO     FAIR      81  16   9 SW15G33   29.75F
T OR C         FAIR      75   5   6 SW18G26   29.72F

$$
NMZ519>523-282200-
CENTRAL VALLEYS/CENTRAL HIGHLANDS

CITY           SKY/WX    TMP DP  RH WIND       PRES   REMARKS
ALBUQUERQUE    FAIR      73  12   9 S21G35    29.72F
DOUBLE EAGLE   PTSUNNY   68  16  13 S16G31    29.74F
MORIARTY ARPT  FAIR      72   9   8 S20G30    29.79F
CLINES CORNERS FAIR      62  16  16 S20G31    29.82F
BELEN          FAIR      74  13  10 SE9G26    29.71F
SOCORRO        FAIR      76  14   9 S21G26    29.71F

$$
NMZ524>526-539-540-282200-
SOUTHCENTRAL MOUNTAINS

CITY           SKY/WX    TMP DP  RH WIND       PRES   REMARKS
RUIDOSO          N/A     66  14  13 SW21G32   29.87F

$$
NMZ527>531-282200-
NORTHEAST HIGHLANDS/NORTHEAST PLAINS

CITY           SKY/WX    TMP DP  RH WIND       PRES   REMARKS
LAS VEGAS      FAIR      60  28  29 MISG      29.85F
RATON          FAIR      58  33  39 S18G25    29.87F
CLAYTON        FAIR      53  39  59 NE15      29.92F

$$
NMZ532>537-282200-
EASTCENTRAL PLAINS

CITY           SKY/WX    TMP DP  RH WIND       PRES   REMARKS
TUCUMCARI      FAIR      76  41  28 NE15G24   29.74F
CANNON AFB     NOT AVBL
CLOVIS AIRPORT FAIR      82  27  13 S21G28    29.74F

$$
NMZ028-029-538-282200-
SOUTHEAST PLAINS

CITY           SKY/WX    TMP DP  RH WIND       PRES   REMARKS
ROSWELL        FAIR      86  19   8 S24G36    29.67F
ARTESIA        FAIR      84  18   8 SW18G29   29.70S
CARLSBAD       FAIR      88  11   5 SW20G26   29.68F
HOBBS          SUNNY     84  14   7 S14G24    29.73F


$$




USA.gov is the U.S. government's official web portal to all federal, state and local government web resources and services.